Location: Peralejo
(40.5415°N, 4.1259°W)
Time: 09:34:34
(UTC+00:00)

CENTAUR R/B - Pass Details

Date: 18 April 2024
Orbit: 670 x 1515 km, 63.4° (Epoch: 19 May)

Event Time Altitude Azimuth Distance (km) Brightness Sun altitude
Rises 23:21:48 0° 323° (NW) 4,282 6.7 -36.7°
Reaches altitude 10° 23:24:31 10° 321° (NW) 3,403 6.0 -36.9°
Enters shadow 23:32:01 64° 275° (W) 1,602 3.5 -37.2°
